Time,TemperatureF,DewpointF,PressureIn,WindDirection,WindDirectionDegrees,WindSpeedMPH,WindSpeedGustMPH,Humidity,HourlyPrecipIn,Conditions,Clouds,dailyrainin,SoftwareType,DateUTC
2013-07-01 09:30:00,79.2,62.6,29.94,SSE,168,16.1,16.1,57,0.00,,---,0.00,VWS V14.01,2013-07-01 13:30:00,
2013-07-01 09:32:00,79.2,62.6,29.94,WSW,237,8.6,8.6,57,0.00,,---,0.00,VWS V14.01,2013-07-01 13:32:00,
2013-07-01 09:38:00,78.8,62.8,29.97,West,275,5.0,7.9,58,0.00,,---,0.00,VWS V14.01,2013-07-01 13:38:00,
2013-07-01 09:39:00,78.6,63.1,29.97,West,273,9.3,9.3,59,0.00,,---,0.00,VWS V14.01,2013-07-01 13:39:00,
2013-07-01 09:45:00,78.3,63.2,29.97,West,265,8.6,10.0,60,0.04,,---,0.04,VWS V14.01,2013-07-01 13:45:00,
2013-07-01 09:46:00,78.1,63.1,29.97,SW,236,10.0,10.0,60,0.04,,---,0.04,VWS V14.01,2013-07-01 13:46:00,
2013-07-01 09:52:00,77.2,61.8,29.97,West,277,5.0,8.6,59,0.04,,---,0.04,VWS V14.01,2013-07-01 13:52:00,
2013-07-01 09:57:00,76.6,61.7,30.00,SW,217,5.7,5.7,60,0.04,,---,0.04,VWS V14.01,2013-07-01 13:57:00,
2013-07-01 10:03:00,76.1,61.7,30.00,SW,236,0.0,8.6,61,0.04,,---,0.04,VWS V14.01,2013-07-01 14:03:00,
2013-07-01 10:08:00,75.7,61.3,29.97,West,274,3.6,6.4,61,0.04,,---,0.04,VWS V14.01,2013-07-01 14:08:00,
2013-07-01 10:14:00,75.6,62.1,29.97,WSW,237,0.0,9.3,63,0.04,,---,0.04,VWS V14.01,2013-07-01 14:14:00,
2013-07-01 10:19:00,75.4,62.4,29.97,WNW,283,0.0,0.0,64,0.04,,---,0.04,VWS V14.01,2013-07-01 14:19:00,
2013-07-01 10:24:00,75.4,62.4,29.97,WNW,283,0.0,0.0,64,0.04,,---,0.04,VWS V14.01,2013-07-01 14:24:00,
2013-07-01 10:30:00,75.6,63.8,29.97,WNW,283,0.0,0.0,67,0.04,,---,0.04,VWS V14.01,2013-07-01 14:30:00,
2013-07-01 10:35:00,75.6,63.8,29.97,WNW,283,0.0,0.0,67,0.04,,---,0.04,VWS V14.01,2013-07-01 14:35:00,
2013-07-01 10:41:00,75.4,64.1,29.97,WNW,283,0.0,0.0,68,0.04,,---,0.04,VWS V14.01,2013-07-01 14:41:00,
2013-07-01 10:46:00,74.8,64.0,29.97,SW,223,5.7,5.7,69,0.00,,---,0.04,VWS V14.01,2013-07-01 14:46:00,
2013-07-01 10:52:00,74.8,64.0,29.97,SW,223,5.7,5.7,69,0.59,,---,0.63,VWS V14.01,2013-07-01 14:52:00,
2013-07-01 10:57:00,74.8,64.0,29.97,NNW,344,0.0,0.0,69,0.59,,---,0.63,VWS V14.01,2013-07-01 14:57:00,
2013-07-01 11:03:00,74.8,64.0,29.97,NNW,344,0.0,0.0,69,0.59,,---,0.63,VWS V14.01,2013-07-01 15:03:00,
2013-07-01 11:09:00,74.8,64.0,29.97,NNW,344,0.0,0.0,69,0.59,,---,0.63,VWS V14.01,2013-07-01 15:09:00,
2013-07-01 11:14:00,74.8,64.0,29.97,NNW,343,0.0,0.0,69,0.59,,---,0.63,VWS V14.01,2013-07-01 15:14:00,
2013-07-01 11:20:00,74.8,64.0,29.97,NNW,343,0.0,0.0,69,0.59,,---,0.63,VWS V14.01,2013-07-01 15:20:00,
2013-07-01 11:26:00,74.8,64.0,29.97,NE,48,0.0,0.0,69,0.59,,---,0.63,VWS V14.01,2013-07-01 15:26:00,
2013-07-01 11:31:00,74.8,64.0,29.97,NE,48,0.0,0.0,69,0.59,,---,0.63,VWS V14.01,2013-07-01 15:31:00,
2013-07-01 11:37:00,74.8,64.0,29.97,NE,48,0.0,0.0,69,0.59,,---,0.63,VWS V14.01,2013-07-01 15:37:00,
2013-07-01 11:42:00,74.8,64.0,29.97,NE,48,0.0,0.0,69,0.59,,---,0.63,VWS V14.01,2013-07-01 15:42:00,
2013-07-01 11:47:00,75.4,67.7,29.97,ESE,103,0.0,0.0,77,0.59,,---,0.63,VWS V14.01,2013-07-01 15:47:00,
2013-07-01 11:52:00,75.4,67.7,29.97,ESE,105,0.0,0.0,77,0.00,,---,0.63,VWS V14.01,2013-07-01 15:52:00,
2013-07-01 11:58:00,75.4,67.7,29.97,ESE,102,0.0,0.0,77,0.00,,---,0.63,VWS V14.01,2013-07-01 15:58:00,
2013-07-01 12:03:00,75.4,67.7,30.00,SSE,152,0.0,0.0,77,0.00,,---,0.63,VWS V14.01,2013-07-01 16:03:00,
2013-07-01 12:08:00,75.4,67.7,30.00,SE,135,0.0,0.0,77,0.00,,---,0.63,VWS V14.01,2013-07-01 16:08:00,
2013-07-01 12:13:00,75.4,67.7,30.00,SSE,156,0.0,0.0,77,0.00,,---,0.63,VWS V14.01,2013-07-01 16:13:00,
2013-07-01 12:18:00,75.4,67.7,30.00,SSE,156,0.0,0.0,77,0.00,,---,0.63,VWS V14.01,2013-07-01 16:18:00,
2013-07-01 12:23:00,75.4,67.7,30.00,SSE,151,0.0,0.0,77,0.00,,---,0.63,VWS V14.01,2013-07-01 16:23:00,
2013-07-01 12:29:00,78.1,70.3,30.00,East,94,5.0,5.0,77,0.00,,---,0.63,VWS V14.01,2013-07-01 16:29:00,
2013-07-01 12:34:00,78.1,70.3,30.00,ESE,119,4.3,5.0,77,0.00,,---,0.63,VWS V14.01,2013-07-01 16:34:00,
2013-07-01 12:39:00,78.1,70.3,30.00,SSE,154,0.0,0.0,77,0.00,,---,0.63,VWS V14.01,2013-07-01 16:39:00,
2013-07-01 12:44:00,78.1,70.3,30.00,ESE,123,0.0,0.0,77,0.00,,---,0.63,VWS V14.01,2013-07-01 16:44:00,
2013-07-01 12:50:00,78.1,70.3,30.00,East,89,5.0,5.0,77,0.00,,---,0.63,VWS V14.01,2013-07-01 16:50:00,
2013-07-01 12:55:00,78.1,70.3,30.00,ESE,109,3.6,3.6,77,0.00,,---,0.63,VWS V14.01,2013-07-01 16:55:00,
2013-07-01 13:01:00,79.2,66.8,30.00,ESE,109,3.6,3.6,66,0.00,,---,0.63,VWS V14.01,2013-07-01 17:01:00,
2013-07-01 13:06:00,79.2,66.8,30.00,SSE,150,0.0,0.0,66,0.00,,---,0.63,VWS V14.01,2013-07-01 17:06:00,
2013-07-01 13:12:00,79.2,66.8,30.00,ENE,59,5.0,5.0,66,0.00,,---,0.63,VWS V14.01,2013-07-01 17:12:00,
2013-07-01 13:17:00,79.2,66.8,30.00,East,99,4.3,4.3,66,0.00,,---,0.63,VWS V14.01,2013-07-01 17:17:00,
2013-07-01 13:23:00,79.2,66.8,30.00,SE,127,5.0,5.0,66,0.00,,---,0.63,VWS V14.01,2013-07-01 17:23:00,
2013-07-01 13:29:00,79.2,66.8,30.00,East,90,9.3,9.3,66,0.00,,---,0.63,VWS V14.01,2013-07-01 17:29:00,
2013-07-01 13:34:00,79.2,66.8,30.00,ESE,119,4.3,4.3,66,0.00,,---,0.63,VWS V14.01,2013-07-01 17:34:00,
2013-07-01 13:40:00,77.0,64.8,30.00,ESE,119,5.7,5.7,66,0.00,,---,0.63,VWS V14.01,2013-07-01 17:40:00,
2013-07-01 13:45:00,77.0,64.8,30.00,ESE,118,6.4,6.4,66,0.00,,---,0.63,VWS V14.01,2013-07-01 17:45:00,
2013-07-01 13:50:00,77.0,64.8,30.00,ENE,68,5.0,5.0,66,0.00,,---,0.63,VWS V14.01,2013-07-01 17:50:00,
2013-07-01 13:55:00,77.0,64.8,30.00,ESE,108,7.2,7.2,66,0.00,,---,0.63,VWS V14.01,2013-07-01 17:55:00,
2013-07-01 14:01:00,77.0,64.8,30.00,East,98,7.9,7.9,66,0.00,,---,0.63,VWS V14.01,2013-07-01 18:01:00,
2013-07-01 14:07:00,77.0,64.8,30.00,East,100,0.0,0.0,66,0.08,,---,0.71,VWS V14.01,2013-07-01 18:07:00,
2013-07-01 14:12:00,77.0,64.8,30.00,East,93,0.0,0.0,66,0.08,,---,0.71,VWS V14.01,2013-07-01 18:12:00,
2013-07-01 14:18:00,75.4,66.1,30.00,East,93,0.0,0.0,73,0.08,,---,0.71,VWS V14.01,2013-07-01 18:18:00,
2013-07-01 14:23:00,75.4,66.1,30.00,East,86,4.3,4.3,73,0.08,,---,0.71,VWS V14.01,2013-07-01 18:23:00,
2013-07-01 14:28:00,75.4,66.1,30.00,ESE,111,5.0,5.0,73,0.08,,---,0.71,VWS V14.01,2013-07-01 18:28:00,
2013-07-01 14:33:00,75.4,66.1,30.00,East,100,4.3,5.0,73,0.08,,---,0.71,VWS V14.01,2013-07-01 18:33:00,
2013-07-01 14:39:00,75.4,66.1,30.00,East,100,4.3,4.3,73,0.08,,---,0.71,VWS V14.01,2013-07-01 18:39:00,
2013-07-01 14:44:00,75.4,66.1,30.00,SE,142,0.0,0.0,73,0.08,,---,0.71,VWS V14.01,2013-07-01 18:44:00,
2013-07-01 14:47:00,75.4,66.1,30.00,East,98,5.7,5.7,73,0.08,,---,0.71,VWS V14.01,2013-07-01 18:47:00,
2013-07-01 14:52:00,75.4,68.1,30.00,East,98,5.7,5.7,78,0.16,,---,0.79,VWS V14.01,2013-07-01 18:52:00,
2013-07-01 14:57:00,75.4,68.1,30.00,ESE,117,3.6,3.6,78,0.16,,---,0.79,VWS V14.01,2013-07-01 18:57:00,
2013-07-01 15:03:00,75.4,68.1,30.00,ENE,74,0.0,0.0,78,0.08,,---,0.79,VWS V14.01,2013-07-01 19:03:00,
2013-07-01 15:09:00,75.4,68.1,30.00,East,84,0.0,0.0,78,0.08,,---,0.79,VWS V14.01,2013-07-01 19:09:00,
2013-07-01 15:15:00,75.4,68.1,30.00,NE,43,5.0,5.0,78,0.08,,---,0.79,VWS V14.01,2013-07-01 19:15:00,
2013-07-01 15:21:00,75.4,68.1,30.00,NE,43,5.0,5.0,78,0.08,,---,0.79,VWS V14.01,2013-07-01 19:21:00,
2013-07-01 15:26:00,75.4,68.1,30.00,NE,55,4.3,4.3,78,0.08,,---,0.79,VWS V14.01,2013-07-01 19:26:00,
2013-07-01 15:32:00,75.4,68.1,30.00,NE,55,4.3,4.3,78,0.08,,---,0.79,VWS V14.01,2013-07-01 19:32:00,
2013-07-01 15:37:00,75.4,68.1,30.00,NE,55,4.3,4.3,78,0.08,,---,0.79,VWS V14.01,2013-07-01 19:37:00,
2013-07-01 15:43:00,75.4,68.1,30.00,SSE,168,0.0,4.3,78,0.08,,---,0.79,VWS V14.01,2013-07-01 19:43:00,
2013-07-01 15:48:00,75.4,68.1,30.00,SSE,168,0.0,0.0,78,0.08,,---,0.79,VWS V14.01,2013-07-01 19:48:00,
2013-07-01 15:54:00,75.4,68.1,30.00,ESE,111,4.3,4.3,78,0.00,,---,0.79,VWS V14.01,2013-07-01 19:54:00,
2013-07-01 16:00:00,75.4,68.1,30.00,SSE,148,0.0,0.0,78,0.00,,---,0.79,VWS V14.01,2013-07-01 20:00:00,
2013-07-01 16:06:00,77.5,70.9,30.00,ENE,74,4.3,4.3,80,0.00,,---,0.79,VWS V14.01,2013-07-01 20:06:00,
2013-07-01 16:11:00,77.5,70.9,30.00,ESE,116,4.3,4.3,80,0.00,,---,0.79,VWS V14.01,2013-07-01 20:11:00,
2013-07-01 16:17:00,77.5,70.9,30.00,ESE,116,4.3,4.3,80,0.00,,---,0.79,VWS V14.01,2013-07-01 20:17:00,
2013-07-01 16:22:00,77.5,70.9,30.00,ESE,116,4.3,4.3,80,0.00,,---,0.79,VWS V14.01,2013-07-01 20:22:00,